This is the latest recevied weather packets stored in our database for station/object KE0TNI-13. If no packets are shown the sender has not sent any weather packets the latest 10 day(s).
| Time | Temp. | Humidity | Pressure | Rain* | Wind** | Luminosity | Snow |
|---|---|---|---|---|---|---|---|
| 1777840756 | 14.44° C | 20% | 1020.2 hPa | 0 mm | - | 222 W/m² | - |
| 1777840150 | 14.44° C | 21% | 1020 hPa | 0 mm | - | 277 W/m² | - |
| 1777839546 | 13.89° C | 19% | 1019.8 hPa | 0 mm | - | 206 W/m² | - |
| 1777838941 | 14.44° C | 19% | 1020.1 hPa | 0 mm | - | 194 W/m² | - |
| 1777836816 | 14.44° C | 23% | 1020.2 hPa | 0 mm | - | 206 W/m² | - |
| 1777836512 | 13.89° C | 21% | 1020.4 hPa | 0 mm | - | 243 W/m² | - |
| 1777835298 | 15.56° C | 20% | 1020.7 hPa | 0 mm | - | 242 W/m² | - |
| 1777834995 | 15.56° C | 19% | 1020.7 hPa | 0 mm | - | 232 W/m² | - |
| 1777834088 | 15.56° C | 19% | 1021 hPa | 0 mm | - | 255 W/m² | - |
| 1777833178 | 14.44° C | 20% | 1021.5 hPa | 0 mm | - | 294 W/m² | - |
| 1777832875 | 15° C | 23% | 1021.5 hPa | 0 mm | - | 287 W/m² | - |
| 1777832574 | 15.56° C | 21% | 1021.5 hPa | 0 mm | - | 392 W/m² | - |
| 1777831362 | 13.89° C | 22% | 1021.7 hPa | 0 mm | - | 999 W/m² | - |
| 1777829547 | 12.78° C | 24% | 1022.2 hPa | 0 mm | - | 568 W/m² | - |
| 1777828335 | 12.22° C | 27% | 1022.7 hPa | 0 mm | - | 332 W/m² | - |
| 1777827426 | 11.67° C | 27% | 1022.8 hPa | 0 mm | - | 477 W/m² | - |
| 1777827122 | 11.11° C | 25% | 1022.6 hPa | 0 mm | - | 355 W/m² | - |
| 1777825910 | 10.56° C | 29% | 1022.6 hPa | 0 mm | - | 224 W/m² | - |
| 1777825607 | 10.56° C | 31% | 1022.8 hPa | 0 mm | - | 214 W/m² | - |
| 1777825305 | 10° C | 28% | 1022.8 hPa | 0 mm | - | 207 W/m² | - |
| 1777825001 | 10° C | 30% | 1022.7 hPa | 0 mm | - | 197 W/m² | - |
| 1777824697 | 10° C | 29% | 1022.8 hPa | 0 mm | - | 193 W/m² | - |
| 1777824395 | 10° C | 27% | 1023.1 hPa | 0 mm | - | 195 W/m² | - |
| 1777824090 | 10° C | 29% | 1022.8 hPa | 0 mm | - | 192 W/m² | - |
| 1777823787 | 10° C | 29% | 1023 hPa | 0 mm | - | 188 W/m² | - |
* Rain latest hour (hover to see other rain measurements)
** Current wind speed in m/s (hover to see current wind gust speed)